Welcome to Hicks Airfield

Driving Safety »



  • Current KAFW METAR
    (5.8nm NE) VFR
    KAFW 250353Z 17003KT 10SM FEW250 22/08 A3005 RMK AO2 SLP163 T02220083
  • Flappings Newsletter
    The official newsletter of HAPA.
    Read »
  • Property Owner's Portal
    Create an account on our new secure portal for access to secure documents.
    Log-in »
  • Air Traffic
    Hear Hicks air traffic from anywhere.
    Listen »